Terminal Aerodrome Forecast
Issued by NWS

Home | Current Version | Previous Version | Text Only | Print | Product List | Glossary On
Versions: 1 2 3 4 5 6 7 8 9 10 11 12 13 14
000
FTAK31 PANC 291453 AAA
TAFADL
TAF AMD
PADL 291453Z 2915/3012 07005KT P6SM SCT025 OVC040
      TEMPO 2915/2918 BKN025
     FM292000 09011G18KT P6SM VCSH SCT015 BKN035=

USA.gov is the U.S. government's official web portal to all federal, state and local government web resources and services.